OneWeb SL0133

operational
NORAD ID: 47263 Int'l Des: 2020-100 Owner: ONEWEB Country: UK Constellation: oneweb
LEOCIRCULARPOLARONEWEB_TYPE

About OneWeb SL0133

Description loading...

Live Position

Loading 3D Globe...

Upcoming Passes

Altitude History

Altitude vs Time

uPlot chart will show altitude changes over time

Two-Line Element Set

1 47263U 20100F 25304.28215522 -.00000344 00000-0 -99301-3 0 9994
2 47263 87.8978 36.1212 0001750 102.8890 257.2434 13.12440738234501
Epoch: Oct 31, 2025 • Age: 9 hours

Current Status

Altitude 1219.8 km
Velocity 7.25 km/s
Sub-Earth Point 44.81°N, 115.7°E
Launch Date Dec 18, 2020
Age 4.8 years
Type internet

Technical Details

Classification Payload
Mass 148.00 kg
Dry Mass 140.00 kg
Total Mass 148.00 kg
Length 1.30 m
Diameter 1.00 m
Span 5.00 m
Shape Trapezoid+2 pan
Manufacturer ONEWUS
Bus Type ARROW
Phase Status In Orbit
Owner/State ONEWEB/UK

Large Constellations

Loading constellations...